Regional Weather Roundup
Issued by NWS

Home | Current Version | Previous Version | Graphics & Text | Print | Product List | Glossary On
Versions: 1 2 3 4 5 6 7 8 9 10 11 12 13 14 15 16 17 18 19 20 21 22 23 24 25 26 27 28 29 30 31 32 33 34 35 36 37 38 39 40 41 42 43 44 45 46 47 48 49 50
000
ASUS43 KIND 281609
RWRIN

WEATHER ROUNDUP FOR INDIANA
NATIONAL WEATHER SERVICE INDIANAPOLIS IN
1200 PM EDT SAT MAY 28 2016

NOTE: "FAIR" INDICATES FEW OR NO CLOUDS BELOW 12,000 FEET WITH NO
SIGNIFICANT WEATHER AND/OR OBSTRUCTIONS TO VISIBILITY.

* - STATION DOES NOT REPORT WEATHER SUCH AS PRECIPITATION OR FOG.

+ - STATION NOT QUALITY CONTROLLED BY THE NATIONAL WEATHER SERVICE.
    USE DATA WITH CAUTION...ESPECIALLY DEWPOINT AND RELATIVE
    HUMIDITY OBSERVATIONS.

INZ001>003-010>013-019-020-281700-
NORTHWEST INDIANA

CITY           SKY/WX    TMP DP  RH WIND       PRES   REMARKS
GARY /AIRPORT/ CLOUDY    77  72  83 S14G28    29.95R
KNOX *+          N/A     75  55  50 SW21G26   30.00R
LA PORTE +     PTSUNNY   77  66  68 S18G28    29.99R
MICHIGAN CITY+ CLOUDY    75  64  69 S16G30    29.97R
MONTICELLO +   CLOUDY    78  60  53 S17G23    30.00R
RENSSELAER +   CLOUDY    73  66  78 S17G25    29.99R
VALPARAISO     CLOUDY    76  65  68 S20G30    29.98R

$$

LMZ046-743>745-281700-
SOUTHERN LAKE MICHIGAN

STATION/POSITION TIME  TEMP    WIND        PRES    WAVE
                       AIR SEA DIR/SP/G            HT
                 (UTC) (F)     (DEG/KT/KT) (MB)    (FT)
BURNS HARBOR     1600   75     190/ 15     1014.6R
MICHIGAN CITY    1500   75     180/ 21/ 26   N/A
5NW MICH CITY    1600   70 58  210/ 16/ 19   N/A     2

$$

INZ004-005-014>016-021>024-281700-
NORTH CENTRAL INDIANA

CITY           SKY/WX    TMP DP  RH WIND       PRES   REMARKS
ELKHART        CLOUDY    77  68  73 S14       30.01R
GOSHEN         PTSUNNY   78  61  55 SW17      30.01R
LOGANSPORT +   CLOUDY    79  63  57 S17       30.03R
PERU/GRISSOM   CLOUDY    79  63  58 SW17G24   30.02R
ROCHESTER +    CLOUDY    79  63  57 S13G20    30.03R
SOUTH BEND     CLOUDY    78  66  66 S14G22    29.99R
WARSAW +       CLOUDY    77  63  61 S5G16     30.02S

$$

INZ006>009-017-018-025>027-281700-
NORTHEAST INDIANA

CITY           SKY/WX    TMP DP  RH WIND       PRES   REMARKS
ANGOLA *+        N/A     79  66  65 S12       30.04R
FORT WAYNE     CLOUDY    79  63  57 SW17      30.06R
HUNTINGTON +   CLOUDY    77  64  64 SW12      30.05R

$$

INZ028-029-035-036-043>045-051>053-281700-
WEST CENTRAL INDIANA

CITY           SKY/WX    TMP DP  RH WIND       PRES   REMARKS
CRAWFORDSVL +  CLOUDY    77  62  61 S21       30.02S
GREENCASTLE +  CLOUDY    79  68  69 S10G17    30.04S
LAFAYETTE      CLOUDY    76  63  64 S13G25    30.00R
TERRE HAUTE    CLOUDY    77  65  66 S16G26    30.01S

$$

INZ030>032-037>040-046>048-054>057-064-065-281700-
CENTRAL INDIANA

CITY           SKY/WX    TMP DP  RH WIND       PRES   REMARKS
ANDERSON       SUNNY     77  66  69 S14G20    30.08S
CP ATTERBURY + MOSUNNY   79  68  69 S7        30.07F
FISHERS *+     MOSUNNY   81  68  65 S16       30.06R
FRANKFORT +      N/A     83  46  27 SW17G31   30.03S
GREENWOOD *+   SUNNY     81  66  61 S14       30.07R
INDIANAPOLIS   PTSUNNY   79  65  62 S16       30.03S
-EAGLE CREEK   MOSUNNY   80  63  55 S13G22    30.04R
KOKOMO *+      CLOUDY    79  61  53 S17G23    30.03S
MARION +       CLOUDY    79  64  58 S10G24    30.06S
SHELBYVILLE    CLOUDY    82  66  58 S16       30.06S
ZIONSVILLE +   CLOUDY    79  64  60 S15G22    30.06R

$$

INZ033-034-041-042-049-050-058-059-281700-
EAST CENTRAL INDIANA

CITY           SKY/WX    TMP DP  RH WIND       PRES   REMARKS
MUNCIE         CLOUDY    80  63  55 SW12G21   30.07R

$$

INZ060-061-067>069-081>083-085>088-281700-
SOUTHWEST INDIANA

CITY           SKY/WX    TMP DP  RH WIND       PRES   REMARKS
EVANSVILLE     CLOUDY    80  64  58 S9        30.03S
HUNTINGBURG *+ MOSUNNY   81  64  57 S13G18    30.05F
WASHINGTON +   CLOUDY    81  67  61 S15G23    30.03S

$$

INZ062-063-066-070>080-084-089>092-281700-
SOUTH CENTRAL AND SOUTHEAST INDIANA

CITY           SKY/WX    TMP DP  RH WIND       PRES   REMARKS
BEDFORD +      CLOUDY    79  73  83 S12       30.06S
BLOOMINGTON    SUNNY     82  64  54 S9        30.05S
MADISON *+     CLOUDY    77  64  65 S10       30.12S
NORTH VERNON + CLOUDY    81  73  78 S8        30.10S
SEYMOUR +      CLOUDY    81  66  61 S10       30.07F

$$





USA.gov is the U.S. government's official web portal to all federal, state and local government web resources and services.